Flag for Germany Weather past 2 weeks in Filderstadt, Baden-Württemberg, Germany

Now
70 °F

Passing clouds.


Feels Like: 75 °F
Forecast: 54 / 79 °F
Wind: 1 mph from North

Location: Stuttgart-Echterdingen

Current Time: Jul 31, 2014 at 10:09:37 PM

Latest Report: Jul 31, 2014 at 9:00 PM


Visibility: 38 mi

Pressure: 29.92 "Hg

Humidity: 63%

Dew point: 57 °F

Location of FilderstadtLocation

Historic Weather in Filderstadt — Graph

°F

Filderstadt temperature yesterday

Maximum temperature yesterday: 72 °F (at 4:00 PM)
Minimum temperature yesterday: 62 °F (at 6:00 AM)
Average temperature yesterday: 65 °F

Past Weeks' High & Low Weather Summary

 TemperatureHumidityPressure
High91 °F (Jul 19, 4:00 PM)100% (Jul 23, 6:00 AM)30.19 "Hg (Jul 23, 6:00 AM)
Low58 °F (Jul 18, 6:00 AM)25% (Jul 18, 3:00 PM)29.72 "Hg (Jul 28, 6:00 PM)
Average69 °F73%29.92 "Hg
* Reported Jul 16 9:00 PM — Jul 31 9:00 PM, Filderstadt, Weather by CustomWeather, © 2014

Note: Actual official high and low records may vary slightly from our data, if they occured in-between our weather recording intervals... More about our weather records

Advertising

Filderstadt weather history for previous 24 hours

 ConditionsComfort  
Time TempWeatherWind HumidityBarometerVisibility
9:00 PM
Jul 31
70 °FPassing clouds.1 mph63%29.92 "Hg37 mi
8:00 PM72 °FPassing clouds.2 mph58%29.92 "Hg37 mi
7:00 PM75 °FScattered clouds.2 mph50%29.91 "Hg37 mi
6:00 PM74 °FScattered clouds.2 mph52%29.93 "Hg37 mi
5:00 PM75 °FScattered clouds.2 mph50%29.93 "Hg37 mi
4:00 PM74 °FScattered clouds.2 mph52%29.94 "Hg31 mi
3:00 PM73 °FPartly sunny.3 mph56%29.96 "Hg28 mi
2:00 PM74 °FPartly sunny.2 mph56%29.96 "Hg28 mi
1:00 PM71 °FPartly sunny.1 mph60%29.98 "Hg22 mi
12:00 PM71 °FScattered clouds.1 mph68%29.98 "Hg19 mi
11:00 AM69 °FScattered clouds.1 mph71%29.99 "Hg12 mi
10:00 AM66 °FOvercast.2 mph79%30.00 "Hg11 mi
9:00 AM64 °FOvercast.1 mph83%30.01 "Hg11 mi
8:00 AM62 °FOvercast.1 mph85%30.00 "Hg11 mi
7:00 AM62 °FPartly sunny.2 mph88%30.00 "Hg9 mi
6:00 AM62 °FOvercast.3 mph88%29.98 "Hg7 mi
5:00 AM62 °FPassing clouds.2 mph87%29.97 "Hg7 mi
4:00 AM64 °FOvercast.3 mph88%29.96 "Hg7 mi
3:00 AM64 °FOvercast.3 mph87%29.96 "Hg12 mi
2:00 AM64 °FOvercast.2 mph88%29.96 "Hg12 mi
1:00 AM65 °FOvercast.2 mph84%29.95 "Hg11 mi
12:00 AM65 °FOvercast.5 mph86%29.94 "Hg11 mi
10:00 PM
Jul 30
65 °FOvercast.6 mph89%29.92 "Hg6 mi
Weather by CustomWeather, © 2014

See weather overviewHow to use our weather pages